Simultaneous Nadir Overpasses (SNOs) Predictions

Prediction of SNOs between METOP-A and TERRA Satellite Orbit:

Table of predicted SNOs for the next 14.0 days since TLE Epoch: 9/12/2020
Index Date (METOP-A) Time (METOP-A) Lat,Lon (METOP-A) SZA (METOP-A ) Date (TERRA) Time (TERRA) Lat,Lon (TERRA) SZA (TERRA ) Distance(km) Time Diff (sec)
1 09/13/2020 11:05:27 -81.39,-117.50 99.06 09/13/2020 11:06:23 -81.40,-117.55 99.03 1.44 56
2 09/13/2020 11:56:08 81.39, 49.72 80.95 09/13/2020 11:55:50 81.39, 49.89 80.95 2.86 18
3 09/16/2020 06:39:51 -81.39, -51.27 97.98 09/16/2020 06:40:38 -81.39, -51.19 97.94 1.31 47
4 09/16/2020 07:30:31 81.38, 116.31 82.07 09/16/2020 07:30:05 81.38, 116.21 82.04 1.67 26
5 09/19/2020 02:14:14 -81.39, 14.95 96.88 09/19/2020 02:14:52 -81.39, 15.14 96.85 3.15 38
6 09/19/2020 03:04:54 81.39,-177.49 83.16 09/19/2020 03:04:19 81.37,-177.49 83.13 1.38 35
7 09/21/2020 21:48:37 -81.38, 81.56 95.75 09/21/2020 21:49:07 -81.38, 81.45 95.75 1.88 30
8 09/21/2020 22:39:17 81.38,-110.91 84.29 09/21/2020 22:38:33 81.38,-110.83 84.28 1.52 44
9 09/24/2020 17:23:00 -81.38, 148.15 94.61 09/24/2020 17:23:21 -81.39, 148.12 94.60 1.61 21
